Regional Weather Roundup
Issued by NWS

Home | Current Version | Previous Version | Graphics & Text | Print | Product List | Glossary On
Versions: 1 2 3 4 5 6 7 8 9 10 11 12 13 14 15 16 17 18 19 20 21 22 23 24 25 26 27 28 29 30 31 32 33 34 35 36 37 38 39 40 41 42 43 44 45 46
000
ASUS45 KBOU 201910
RWRCO

WEATHER ROUNDUP FOR COLORADO
NATIONAL WEATHER SERVICE PUEBLO CO
1200 PM MST TUE FEB 20 2018

NOTE: "FAIR" INDICATES FEW OR NO CLOUDS BELOW 12000 FEET WITH NO
SIGNIFICANT WEATHER AND/OR OBSTRUCTIONS TO VISIBILITY.

COZ001>005-013-030-031-202000-
...NORTHWEST COLORADO...

CITY           SKY/WX    TMP DP  RH WIND       PRES   REMARKS
CRAIG          PTSUNNY   13   2  61 E5        29.96S WCI   5
HAYDEN         FAIR       8   2  76 SW5       29.94S WCI   0
MEEKER         FAIR      13   7  77 S5        29.93S WCI   5
RABBIT EARS PA NOT AVBL
STEAMBOAT SPGS PTSUNNY   10   0  63 CALM      29.89F
WALDEN         FAIR      12  -4  48 SW9G18    29.80S WCI   0
$$

COZ006>008-011-202000-
...WEST CENTRAL VALLEYS...

CITY           SKY/WX    TMP DP  RH WIND       PRES   REMARKS
GRAND JUNCTION FAIR      27  14  58 CALM      30.00R
MONTROSE       CLOUDY    20  14  77 N8        29.99R WCI  10
EAGLE          CLOUDY    20   8  60 S16       29.90S WCI   6
RIFLE          FAIR      20  12  71 SE3       29.97S
DELTA          NOT AVBL
NUCLA          CLOUDY    28  14  54 W10       29.98S WCI  19
$$

COZ017>023-064>068-202000-
...SOUTHWEST COLORADO...

CITY           SKY/WX    TMP DP  RH WIND       PRES   REMARKS
DURANGO        CLOUDY    24  10  55 SW6       29.94S WCI  17
CORTEZ         CLOUDY    29  12  49 VRB5      29.97S WCI  24
PAGOSA SPRINGS CLOUDY    23  -1  35 SW12G18   29.90S WCI  11
TELLURIDE      CLOUDY    13   1  58 W12       29.84S WCI  -1
WOLF CREEK PAS CLOUDY     0  -4  85 S20G31    29.74S WCI -22
$$

COZ009-010-012-014-032>034-037-058>063-202000-
...CENTRAL COLORADO...

CITY           SKY/WX    TMP DP  RH WIND       PRES   REMARKS
ASPEN          FLURRIES  16   9  74 NE6       29.81S WCI   7
BUENA VISTA    FAIR      22  -6  29 S8G29     29.78F WCI  12
COPPER MTN     CLOUDY     5  -6  61 W17G24    29.61S HAZE    WCI -14
BERTHOUD PASS  CLOUDY    -6 -17  59 MISG      29.58R HAZE
COTTONWOOD PAS PTSUNNY   21  -9  25 W8G24     29.71S WCI  12
GUNNISON       FAIR      19   2  47 W15G22    29.85S WCI   5
KREMMLING      CLOUDY    21   3  45 SE3       29.85S
LEADVILLE      LGT SNOW   9   2  73 NW8       29.69S WCI  -3
MONARCH PASS   FAIR       0  -6  78 W35G45    29.72S WCI -28
SALIDA         FAIR      25   5  43 W14G25    29.90S WCI  13
SUNLIGHT       LGT SNOW   3   0  85 SW7       29.75R VSB 1   WCI  -9
WILKERSON PASS FAIR      10   0  61 SW14G23   29.68S WCI  -5
$$

COZ069>075-202000-
...SAN LUIS VALLEY/SANGRE DE CRISTO MOUNTAINS...

CITY           SKY/WX    TMP DP  RH WIND       PRES   REMARKS
ALAMOSA        FAIR      29  -3  25 SW21G30   29.83S WCI  16
DEL NORTE      FAIR      23   2  41 W16G26    29.83F WCI   9
LA VETA PASS   CLOUDY    18   1  49 SW28G49   29.80F WCI  -1
SAGUACHE       FAIR      27   1  33 NW13      29.81F WCI  16
$$

COZ035-036-038>040-202000-
...NORTHERN COLORADO FRONT RANGE...

CITY           SKY/WX    TMP DP  RH WIND       PRES   REMARKS
DENVER INTL AP PTSUNNY    9   2  73 E9        29.94F WCI  -4
DMNS CITY PARK NOT AVBL
AURORA         PTSUNNY    8   1  73 SE6       29.92F WCI  -2
FRONT RANGE AP PTSUNNY   10   3  72 E8        29.95S WCI  -1
ERIE MUNI ARPT FAIR       9  -1  64 CALM      30.03F
BOULDER MUN AP PTSUNNY   10   1  67 NE5       29.96S WCI   2
CENTENNIAL     PTSUNNY   10   3  73 CALM      29.89F
BROOMFIELD     PTSUNNY   10   3  72 CALM      29.93S
LOVELAND       FAIR      12   4  70 S8        29.99F WCI   0
LONGMONT       NOT AVBL
$$

COZ041-046-047-076>085-087-088-202000-
...PIKES PEAK/PALMER DIVIDE AND SOUTHERN FOOTHILLS...

CITY           SKY/WX    TMP DP  RH WIND       PRES   REMARKS
COLO. SPRINGS  LGT SNOW  14  10  84 S8        29.88F FOG     WCI   3
A. F. ACADEMY  MOSUNNY   17   6  62 S5        29.85S WCI  10
SCHRIEVER AFB  NOT AVBL
CHEYENNE MTN   NOT AVBL
ELLICOTT         N/A    N/A N/A N/A W7        29.88
FALCON         FLURRIES  17   8  68 SW8       29.85S WCI   6
FORT CARSON    MOSUNNY   16   8  70 S8        29.89F WCI   5
LIMON          FAIR      13   3  64 NE9       29.95F WCI   1
MONUMENT HILL  FAIR      12   7  79 E5        29.82F WCI   4
CANON CITY     FLURRIES  18  10  73 CALM      29.92F
WALSENBURG     CLOUDY    18  14  86 N9        29.87F WCI   6
TRINIDAD       CLOUDY    20  15  81 E7        29.89F WCI  11
$$

COZ042>045-048>051-090-091-202000-
...NORTHEAST COLORADO...

CITY           SKY/WX    TMP DP  RH WIND       PRES   REMARKS
GREELEY ARPT   FAIR       8  -3  61 S8        30.04F WCI  -4
AKRON          FAIR       6  -3  66 NW8       30.01F WCI  -7
BURLINGTON     FAIR      11  -1  58 N15       30.03F WCI  -5
WRAY           FAIR      16   3  57 N14       30.09F WCI   1
YUMA           NOT AVBL
STERLING       FAIR      12  -2  52 N7        30.07F WCI   2
HOLYOKE        FAIR      16   1  53 NW15      30.09F WCI   1
FORT MORGAN    FAIR      12  -3  51 CALM      30.04F
$$

COZ086-089-092>099-202000-
...SOUTHEAST COLORADO...

CITY           SKY/WX    TMP DP  RH WIND       PRES   REMARKS
PUEBLO         PTSUNNY   16   9  74 SE6       29.98F WCI   7
LA JUNTA       FAIR      18   5  57 NE7       30.04F WCI   9
LAMAR          FAIR      21   5  50 N8G18     30.04F WCI  11
SPRINGFIELD      N/A     22   6  50 N8        29.99S WCI  12
$$





USA.gov is the U.S. government's official web portal to all federal, state and local government web resources and services.